Voltar ao catálogo

COSMOS 2251 DEB

AtivoLEO
NORAD 39591·DEBRIS·🇷🇺 Russia

Lançado Jun 16, 1993 de Plesetsk Cosmodrome

Loading…

Próximas Passagens (próximas 24 horas)

TLE

AtualizadoSource: Space-Track

Época: Sep 14, 2026, 05:58 UTC

1 39591U 93036BUW 26257.24915600  .00000601  00000-0  18880-3 0  9992
2 39591  74.0168  95.4100 0029474 144.9725 336.9731 14.42405019657484

Acompanhe COSMOS 2251 DEB em tempo real com AllMySat

Download on the App Store